Flag for Germany Weather past 2 weeks in Salzgitter, Lower Saxony, Germany

Now
68 °F

Partly sunny.


Feels Like: 68 °F
Forecast: 55 / 75 °F
Wind: 10 mph from West

Location: Braunschweig

Current Time: May 4, 2015 at 4:07:47 PM

Latest Report: May 4, 2015 at 3:20 PM


Visibility: N/A

Pressure: 29.80 "Hg

Humidity: 56%

Dew point: 52 °F

Location of SalzgitterLocation

Historic Weather in Salzgitter — Graph

°F

Salzgitter temperature yesterday

Maximum temperature yesterday: 64 °F (at 1:50 PM)
Minimum temperature yesterday: 59 °F (at 11:20 AM)
Average temperature yesterday: 61 °F

Past Weeks' High & Low Weather Summary

 TemperatureHumidityPressure
High68 °F (Apr 20, 3:20 PM)100% (Apr 20, 7:20 AM)30.39 "Hg (Apr 20, 7:20 AM)
Low36 °F (Apr 29, 6:50 AM)22% (Apr 21, 6:50 PM)29.59 "Hg (Apr 27, 6:50 AM)
Average53 °F68%30.01 "Hg
* Reported Apr 19 4:50 PM — May 4 2:50 PM, Salzgitter, Weather by CustomWeather, © 2015

Note: Actual official high and low records may vary slightly from our data, if they occured in-between our weather recording intervals... More about our weather records

Advertising

Salzgitter weather history for previous 24 hours

 ConditionsComfort  
Time TempWeatherWind HumidityBarometerVisibility
2:50 PM
Mon, May 4
68 °FBroken clouds.10 mph56%29.80 "HgN/A
2:20 PM68 °FPartly sunny.6 mph64%29.80 "HgN/A
1:50 PM66 °FBroken clouds.5 mph68%29.80 "HgN/A
1:20 PM64 °FBroken clouds.6 mph73%29.80 "HgN/A
12:50 PM66 °FBroken clouds.8 mph68%29.80 "HgN/A
12:20 PM64 °FPartly sunny.8 mph73%29.80 "HgN/A
11:20 AM61 °FBroken clouds.8 mph88%29.80 "HgN/A
10:50 AM59 °FMostly cloudy.13 mph88%29.80 "HgN/A
10:20 AM61 °FMostly cloudy.9 mph77%29.80 "HgN/A
9:50 AM61 °FMostly cloudy.9 mph77%29.77 "HgN/A
9:20 AM61 °FBroken clouds.12 mph77%29.77 "HgN/A
8:50 AM59 °FPartly sunny.10 mph82%29.77 "HgN/A
8:20 AM59 °FSunny.13 mph88%29.74 "Hg10 mi
7:50 AM57 °FSunny.12 mph88%29.74 "Hg10 mi
7:20 AM57 °FSunny.10 mph88%29.74 "Hg10 mi
6:50 AM57 °FPassing clouds.10 mph88%29.71 "HgN/A
5:50 AM55 °FClear.12 mph100%29.68 "Hg10 mi
7:50 PM
Sun, May 3
59 °FLight rain. Cloudy.10 mph88%29.62 "HgN/A
7:20 PM59 °FLight rain. Mostly cloudy.12 mph82%29.65 "HgN/A
6:50 PM61 °FLight rain. Mostly cloudy.13 mph72%29.65 "HgN/A
4:50 PM63 °FOvercast.14 mph64%29.68 "HgN/A
Weather by CustomWeather, © 2015

See weather overviewHow to use our weather pages